Location: Franzen
(48.6167°N, 15.3833°E)
Time: 12:15:33
(UTC+00:00)

ARIANE 5 R/B - Pass Details

Date: 03 August 2021
Orbit: 622 x 654 km, 98.1° (Epoch: 23 September)

Event Time Altitude Azimuth Distance (km) Brightness Sun altitude
Exits shadow 19:07:52 - 115° (ESE) 2,306 4.8 -5.8°
Reaches altitude 10° 19:08:43 10° 109° (ESE) 2,037 4.6 -5.9°
Maximum altitude 19:11:58 20° 61° (ENE) 1,466 4.2 -6.3°
Drops below altitude 10° 19:15:12 10° 14° (NNE) 2,033 5.5 -6.7°
Sets 19:17:51 0° 358° (N) 2,940 6.6 -7.1°
